Regional Weather Roundup
Issued by NWS Newport/Morehead, NC

Current Version | Previous Version | Text Only | Print | Product List | Glossary On
Versions: 1 2 3 4 5 6 7 8 9 10 11 12 13 14 15 16 17 18 19 20 21 22 23 24 25 26 27 28 29 30 31 32 33 34 35 36 37 38 39 40 41 42 43 44 45 46 47 48 49 50
000
ASUS42 KMHX 270522
RWRMHX
WEATHER ROUNDUP FOR EASTERN NORTH CAROLINA
NATIONAL WEATHER SERVICE NEWPORT/MOREHEAD CITY NC
1200 AM EST THU NOV 27 2014

NOTE: "FAIR" INDICATES FEW OR NO CLOUDS BELOW 12,000 FEET
WITH NO SIGNIFICANT WEATHER AND/OR OBSTRUCTIONS TO VISIBILITY

NCZ015>017-031-032-045>047-102-103-270600-
NORTH COAST

CITY           SKY/WX    TMP DP  RH WIND       PRES   REMARKS
EDENTON        CLOUDY    41  37  86 NW7       30.07S
ELIZABETH CITY CLOUDY    43  37  79 W9        30.06R
KITTY HAWK     CLOUDY    42  39  89 W9        30.04S
MANTEO         CLOUDY    41  37  86 W8        30.05S

$$

NCZ045>047-081-094-103-104-270600-
CENTRAL COAST

CITY           SKY/WX    TMP DP  RH WIND       PRES   REMARKS
FRISCO         CLOUDY    43  40  89 NW12G20   30.07R
SWANQUARTER      N/A     43 N/A N/A NW9       30.06R

$$

NCZ095-097-098-100-101-270600-
SOUTHERN COAST

CITY           SKY/WX    TMP DP  RH WIND       PRES   REMARKS
BEAUFORT       CLOUDY    44  40  85 NW12      30.11R
CEDAR ISLAND     N/A     45 N/A N/A W10G16    30.12S
JACKSONVILLE   CLEAR     40  38  93 CALM      30.11R
PINEY ISLAND   CLOUDY    46  38  73 W9        30.10R
WILMINGTON     CLEAR     40  39  97 CALM      30.10F FOG


$$

NCZ011>013-027>030-043-044-078>080-089-090>093-098-270600-
COASTAL PLAIN

CITY           SKY/WX    TMP DP  RH WIND       PRES   REMARKS
AHOSKIE        CLEAR     35  34  97 CALM      30.08R FOG
CLINTON        CLEAR     38  38 100 CALM      30.08F
ELIZABETHTOWN  CLEAR     39  39 100 CALM      30.08F
GOLDSBORO      CLEAR     37  37  98 CALM      30.08S
GREENVILLE     FOG       36  36 100 CALM      30.11R VSB 3/4
HAVELOCK       CLOUDY    44  38  79 W9        30.12R
KENANSVILLE    CLEAR     35  35 100 CALM      30.09F
KINSTON        CLEAR     35  35  99 CALM      30.12R FOG
NEW BERN       CLOUDY    44  37  76 N8        30.12R
RICHLANDS      CLEAR     36  34  93 CALM      30.10F
ROCKY MOUNT    CLEAR     34  33  96 SE3       30.08R
WASHINGTON     CLEAR     37  36  96 CALM      30.10R
WHITEVILLE     CLEAR     40  40  97 CALM      30.08F

$$

AMZ130-135-150-152-154-156-158-170-250-252-270-ANZ085-086-088-633-658-670-270600-
MARINE OBSERVATIONS

STATION/POSITION TIME  TEMP    WIND        PRES    WAVE   SWELL
                       AIR SEA DIR/SP/G            HT/PER HT/PER
                 (UTC) (F)     (DEG/KT/KT) (MB)    (FT/S) (FT/S)
CHESAPEAKE LIGHT 0500   43     310/ 16/ 20 1017.0
64 E VA BEACH    0500   48 61  320/ 19/ 23 1014.6   11/ 9   7/ 9
DUCK             0500   41 55  300/ 14/ 17 1016.8
2 E DUCK         0500      57                N/A     6/ 9   2/11
10 NE DUCK       0500      59                N/A     7/ 9   2/11
OREGON INLET     0500   43 57  290/ 11/ 16 1017.4
13E OREGON INLT  0500      62                N/A    10/ 9   2/11
HATTERAS CG      0500   45 61  320/ 14/ 17 1018.3
DIAMOND BUOY     0500   48     290/ 17/ 23 1017.6   10/10   7/10
17 S OCRACOKE    NOT AVBL
CAPE LOOKOUT     0500   45     300/  8/ 10 1019.5
BEAUFORT LAB     0500   45 58  300/  6/ 11 1018.6
30 SE NEW RIVER  0500   49 67  320/ 12/ 17 1019.8    4/ 9   3/ 9
5 SE WRIGHTSVLE  0500   46 59  360/  6/  8 1018.9
225 S CAPE HAT   0412   66 73  300/ 17/ 23 1018.9   10/ 8   7/ 8
41 SE CHARLESTON 0500   61 74  260/ 17/ 21 1019.0    4/ 9   2/ 9

$$


USA.gov is the U.S. government's official web portal to all federal, state and local government web resources and services.